Springfield-Branson National Airport Airport (SGF)

 

Airport Diagram
Current Weather/Forecast (VFR Conditions)
METAR KSGF 281852Z 14012KT 10SM CLR 29/15 A2994 RMK AO2 SLP126 T02940150
TAF KSGF 281720Z 2818/2918 16007KT P6SM SCT250 FM291600 15008KT P6SM SCT035 PROB30 2916/2918 4SM TSRA BR OVC025CB

All Charts
General
Chart Name Download
AIRPORT DIAGRAM
TAKEOFF MINIMUMS
ALTERNATE MINIMUMS
HOT SPOT

Approaches
Chart Name Download
ILS OR LOC RWY 02
ILS OR LOC RWY 14
RNAV (GPS) RWY 02
RNAV (GPS) RWY 14
RNAV (GPS) RWY 20
RNAV (GPS) RWY 32
VOR/DME OR TACAN RWY 02
VOR OR TACAN RWY 20
HI-TACAN RWY 20